• In Czech Republic
  • List of Countries
  • For 7 days
  • Water Temperature
  • Satellite Maps
  • Weather Map
  • Weather Widgets
  • user-avatar
    Login

    Hourly Weather Mazıdağı

    Today, 21 October, Saturday

    Time Temperature Precipitation Wind Pressure Humidity
    00:00 +15°C° 0 mm 1 mps 669 mmHg 23%
    01:00 +15°C° 0 mm 1 mps 669 mmHg 23%
    02:00 +15°C° 0 mm 1 mps 669 mmHg 24%
    03:00 +14°C° 0 mm 1 mps 668 mmHg 25%
    04:00 +14°C° 0 mm 1 mps 668 mmHg 25%
    05:00 +14°C° 0 mm 1 mps 668 mmHg 26%
    06:00 +13°C° 0 mm 1 mps 668 mmHg 27%
    07:00 +15°C° 0 mm 1 mps 669 mmHg 24%
    08:00 +16°C° 0 mm 1 mps 669 mmHg 22%
    09:00 +19°C° 0 mm 1 mps 669 mmHg 20%
    10:00 +20°C° 0 mm 1 mps 670 mmHg 19%
    11:00 +22°C° 0 mm 1 mps 670 mmHg 17%
    12:00 +23°C° 0 mm 1 mps 670 mmHg 16%
    13:00 +23°C° 0 mm 1 mps 669 mmHg 16%
    14:00 +24°C° 0 mm 2 mps 669 mmHg 15%
    15:00 +24°C° 0 mm 2 mps 669 mmHg 15%
    16:00 +23°C° 0 mm 2 mps 668 mmHg 17%
    17:00 +22°C° 0 mm 1 mps 668 mmHg 18%
    18:00 +20°C° 0 mm 1 mps 667 mmHg 19%
    19:00 +20°C° 0 mm 1 mps 667 mmHg 20%
    20:00 +19°C° 0 mm 1 mps 667 mmHg 21%
    21:00 +18°C° 0 mm 1 mps 667 mmHg 22%
    22:00 +18°C° 0 mm 1 mps 667 mmHg 23%
    23:00 +16°C° 0 mm 1 mps 667 mmHg 23%

    Tomorrow, 22 October, Sunday

    Time Temperature Precipitation Wind Pressure Humidity
    00:00 +16°C° 0 mm 1 mps 667 mmHg 24%
    01:00 +15°C° 0 mm 1 mps 667 mmHg 24%
    02:00 +15°C° 0 mm 1 mps 666 mmHg 25%
    03:00 +14°C° 0 mm 1 mps 666 mmHg 26%
    04:00 +14°C° 0 mm 1 mps 666 mmHg 26%
    05:00 +14°C° 0 mm 1 mps 666 mmHg 27%
    06:00 +13°C° 0 mm 1 mps 666 mmHg 27%
    07:00 +15°C° 0 mm 1 mps 666 mmHg 25%
    08:00 +16°C° 0 mm 1 mps 667 mmHg 22%
    09:00 +19°C° 0 mm 1 mps 668 mmHg 20%
    10:00 +20°C° 0 mm 1 mps 668 mmHg 19%
    11:00 +20°C° 0 mm 2 mps 668 mmHg 17%
    12:00 +23°C° 0 mm 2 mps 668 mmHg 16%
    13:00 +23°C° 0 mm 2 mps 668 mmHg 15%
    14:00 +24°C° 0 mm 3 mps 667 mmHg 15%
    15:00 +24°C° 0 mm 3 mps 667 mmHg 14%
    16:00 +22°C° 0 mm 3 mps 667 mmHg 15%
    17:00 +21°C° 0 mm 2 mps 666 mmHg 17%
    18:00 +19°C° 0 mm 2 mps 666 mmHg 18%
    19:00 +20°C° 0 mm 1 mps 666 mmHg 19%
    20:00 +19°C° 0 mm 1 mps 666 mmHg 20%
    21:00 +18°C° 0 mm 1 mps 666 mmHg 21%
    22:00 +16°C° 0 mm 1 mps 666 mmHg 21%
    23:00 +15°C° 0 mm 0 mps 666 mmHg 22%

    Day after tomorrow, 23 October, Monday

    Time Temperature Precipitation Wind Pressure Humidity
    00:00 +14°C° 0 mm 0 mps 666 mmHg 23%
    01:00 +14°C° 0 mm 0 mps 666 mmHg 24%
    02:00 +14°C° 0 mm 1 mps 666 mmHg 24%
    03:00 +14°C° 0 mm 1 mps 666 mmHg 25%
    04:00 +13°C° 0 mm 1 mps 666 mmHg 26%
    05:00 +13°C° 0 mm 1 mps 666 mmHg 26%
    06:00 +13°C° 0 mm 1 mps 665 mmHg 27%
    07:00 +14°C° 0 mm 1 mps 666 mmHg 25%
    08:00 +16°C° 0 mm 1 mps 667 mmHg 22%
    09:00 +18°C° 0 mm 1 mps 668 mmHg 20%
    10:00 +19°C° 0 mm 2 mps 668 mmHg 19%
    11:00 +20°C° 0 mm 2 mps 668 mmHg 17%
    12:00 +23°C° 0 mm 2 mps 668 mmHg 15%
    13:00 +23°C° 0 mm 2 mps 668 mmHg 15%
    14:00 +24°C° 0 mm 3 mps 668 mmHg 14%
    15:00 +24°C° 0 mm 3 mps 668 mmHg 14%
    16:00 +23°C° 0 mm 2 mps 667 mmHg 15%
    17:00 +20°C° 0 mm 2 mps 667 mmHg 17%
    18:00 +19°C° 0 mm 2 mps 667 mmHg 18%
    19:00 +19°C° 0 mm 1 mps 667 mmHg 20%
    20:00 +19°C° 0 mm 1 mps 667 mmHg 21%
    21:00 +18°C° 0 mm 1 mps 667 mmHg 22%
    22:00 +18°C° 0 mm 1 mps 667 mmHg 23%
    23:00 +16°C° 0 mm 1 mps 667 mmHg 24%

    24 October, Tuesday

    Time Temperature Precipitation Wind Pressure Humidity
    00:00 +16°C° 0 mm 1 mps 667 mmHg 24%
    01:00 +16°C° 0 mm 1 mps 667 mmHg 25%
    02:00 +15°C° 0 mm 1 mps 666 mmHg 26%
    03:00 +15°C° 0 mm 1 mps 666 mmHg 26%
    04:00 +15°C° 0 mm 1 mps 666 mmHg 27%
    05:00 +14°C° 0 mm 1 mps 666 mmHg 28%
    06:00 +14°C° 0 mm 1 mps 666 mmHg 29%
    07:00 +15°C° 0 mm 2 mps 667 mmHg 26%
    08:00 +17°C° 0 mm 2 mps 668 mmHg 24%
    09:00 +18°C° 0 mm 2 mps 669 mmHg 21%
    10:00 +20°C° 0 mm 3 mps 669 mmHg 20%
    11:00 +22°C° 0 mm 3 mps 669 mmHg 18%
    12:00 +23°C° 0 mm 4 mps 669 mmHg 16%
    13:00 +25°C° 0 mm 4 mps 669 mmHg 16%
    14:00 +25°C° 0 mm 5 mps 669 mmHg 15%
    15:00 +26°C° 0 mm 5 mps 668 mmHg 15%
    16:00 +23°C° 0 mm 5 mps 668 mmHg 17%
    17:00 +22°C° 0 mm 4 mps 668 mmHg 19%
    18:00 +21°C° 0 mm 3 mps 668 mmHg 22%
    19:00 +20°C° 0 mm 3 mps 668 mmHg 22%
    20:00 +20°C° 0 mm 3 mps 668 mmHg 23%
    21:00 +19°C° 0 mm 4 mps 668 mmHg 24%
    22:00 +19°C° 0 mm 4 mps 668 mmHg 23%
    23:00 +18°C° 0 mm 4 mps 668 mmHg 23%

    25 October, Wednesday

    Time Temperature Precipitation Wind Pressure Humidity
    00:00 +18°C° 0 mm 4 mps 669 mmHg 23%
    01:00 +18°C° 0 mm 4 mps 668 mmHg 23%
    02:00 +17°C° 0 mm 3 mps 668 mmHg 24%
    03:00 +17°C° 0 mm 3 mps 668 mmHg 24%
    04:00 +16°C° 0 mm 3 mps 668 mmHg 25%
    05:00 +16°C° 0 mm 2 mps 668 mmHg 25%
    06:00 +15°C° 0 mm 2 mps 668 mmHg 26%
    07:00 +17°C° 0 mm 3 mps 669 mmHg 24%
    08:00 +19°C° 0 mm 3 mps 669 mmHg 22%
    09:00 +20°C° 0 mm 3 mps 670 mmHg 20%
    10:00 +22°C° 0 mm 4 mps 670 mmHg 18%
    11:00 +23°C° 0 mm 5 mps 670 mmHg 16%
    12:00 +26°C° 0 mm 6 mps 670 mmHg 14%
    13:00 +26°C° 0 mm 6 mps 670 mmHg 14%
    14:00 +27°C° 0 mm 6 mps 670 mmHg 14%
    15:00 +27°C° 0 mm 6 mps 669 mmHg 14%
    16:00 +25°C° 0 mm 5 mps 669 mmHg 16%
    17:00 +23°C° 0 mm 4 mps 669 mmHg 17%
    18:00 +21°C° 0 mm 3 mps 669 mmHg 19%
    19:00 +20°C° 0 mm 2 mps 669 mmHg 21%
    20:00 +19°C° 0 mm 2 mps 669 mmHg 22%
    21:00 +19°C° 0 mm 2 mps 669 mmHg 23%
    22:00 +18°C° 0 mm 2 mps 669 mmHg 25%
    23:00 +18°C° 0 mm 1 mps 669 mmHg 26%

    26 October, Thursday

    Time Temperature Precipitation Wind Pressure Humidity
    00:00 +18°C° 0 mm 1 mps 669 mmHg 28%
    01:00 +16°C° 0 mm 1 mps 669 mmHg 30%
    02:00 +16°C° 0 mm 1 mps 669 mmHg 32%
    03:00 +15°C° 0 mm 1 mps 669 mmHg 33%
    04:00 +15°C° 0 mm 1 mps 669 mmHg 35%
    05:00 +15°C° 0 mm 1 mps 669 mmHg 36%
    06:00 +14°C° 0 mm 1 mps 669 mmHg 37%
    07:00 +16°C° 0 mm 1 mps 670 mmHg 34%
    08:00 +19°C° 0 mm 1 mps 670 mmHg 30%
    09:00 +20°C° 0 mm 1 mps 671 mmHg 27%
    10:00 +22°C° 0 mm 1 mps 671 mmHg 25%
    11:00 +23°C° 0 mm 2 mps 671 mmHg 23%
    12:00 +24°C° 0 mm 2 mps 671 mmHg 20%
    13:00 +25°C° 0 mm 2 mps 671 mmHg 20%
    14:00 +25°C° 0 mm 3 mps 670 mmHg 20%
    15:00 +25°C° 0 mm 3 mps 670 mmHg 19%
    16:00 +24°C° 0 mm 3 mps 670 mmHg 22%
    17:00 +23°C° 0 mm 2 mps 669 mmHg 24%
    18:00 +20°C° 0 mm 2 mps 669 mmHg 26%
    19:00 +20°C° 0 mm 2 mps 669 mmHg 27%
    20:00 +20°C° 0 mm 1 mps 669 mmHg 29%
    21:00 +19°C° 0 mm 1 mps 669 mmHg 30%
    22:00 +19°C° 0 mm 1 mps 669 mmHg 31%
    23:00 +18°C° 0 mm 1 mps 668 mmHg 31%
    Show more